Weather History for KBLH - August, 2013

Change the Weather History Date:

Wednesday, August 7, 2013

  Actual Average Record
Temperature  
Mean Temperature 94 °F -  
Max Temperature 107 °F 106 °F 116 °F (2001)
Min Temperature 82 °F 80 °F 68 °F (1988)
Cooling Degree Days 29    
Growing Degree Days 44 (Base 50)    
Moisture  
Dew Point 46 °F    
Average Humidity 25    
Maximum Humidity 52    
Minimum Humidity 6    
Precipitation  
Precipitation 0.00 in - - ()
Sea Level Pressure  
Sea Level Pressure 29.81 in    
Wind  
Wind Speed 9 mph (South)    
Max Wind Speed 14 mph    
Max Gust Speed 18 mph    
Visibility 10 miles    
Events      
Averages and records for this station are not official NWS values.
T = Trace of Precipitation, MM = Missing Value Source: NWS Daily Summary

Daily Weather History Graph

Daily Weather History Graph

Search for Another Location

Airport or City:

Trip Planner

Search our weather history database for the weather conditions in past years. The results will help you decide how hot, cold, wet, or windy it might be!

Date:

Astronomy

Aug. 07, 2013 Rise Set
Actual Time 5:55 AM PDT 7:33 PM PDT
Civil Twilight 5:28 AM PDT 7:59 PM PDT
Nautical Twilight 4:56 AM PDT 8:31 PM PDT
Astronomical Twilight 4:22 AM PDT 9:05 PM PDT
Moon 6:42 AM PDT (8/7) 7:49 PM PDT (8/7)
Length of Visible Light 14h 31m
Length of Day
13h 37m
New Moon, 1% of the Moon is Illuminated
Aug 7
New Moon
Aug 14
First Quarter
Aug 20
Full
Aug 28
Last Quarter
Sep 5
New

Hourly Weather History & Observations

Time (PDT) Temp. Heat Index Dew Point Humidity Pressure Visibility Wind Dir Wind Speed Gust Speed Precip Events Conditions
12:52 AM 88.0 °F 87.1 °F 59.0 °F 37% 29.85 in 10.0 mi SSW 8.1 mph - N/A   Clear
1:52 AM 88.0 °F 87.6 °F 60.1 °F 39% 29.83 in 10.0 mi SW 13.8 mph - N/A   Clear
2:52 AM 84.9 °F 84.8 °F 60.1 °F 43% 29.83 in 10.0 mi SSE 5.8 mph - N/A   Clear
3:52 AM 82.9 °F 83.3 °F 61.0 °F 47% 29.83 in 10.0 mi South 11.5 mph - N/A   Clear
4:52 AM 82.0 °F 83.0 °F 62.1 °F 51% 29.83 in 10.0 mi South 11.5 mph - N/A   Clear
5:52 AM 82.0 °F 83.0 °F 62.1 °F 51% 29.85 in 10.0 mi SSW 5.8 mph - N/A   Clear
6:52 AM 82.0 °F 83.1 °F 63.0 °F 52% 29.86 in 10.0 mi Calm Calm - N/A   Clear
7:52 AM 84.0 °F 84.9 °F 63.0 °F 49% 29.88 in 10.0 mi South 4.6 mph - N/A   Clear
8:52 AM 89.1 °F 89.3 °F 62.1 °F 40% 29.89 in 10.0 mi SSE 11.5 mph - N/A   Clear
9:52 AM 93.0 °F 90.6 °F 53.1 °F 26% 29.88 in 10.0 mi SSW 8.1 mph - N/A   Clear
10:52 AM 95.0 °F - 51.1 °F 22% 29.88 in 10.0 mi SSE 10.4 mph - N/A   Clear
11:52 AM 99.0 °F - 48.0 °F 18% 29.86 in 10.0 mi SSE 11.5 mph 18.4 mph N/A   Clear
12:52 PM 100.0 °F - 41.0 °F 13% 29.84 in 10.0 mi SSE 8.1 mph 17.3 mph N/A   Clear
1:52 PM 102.9 °F - 37.9 °F 11% 29.82 in 10.0 mi SSE 12.7 mph - N/A   Clear
2:52 PM 102.9 °F - 37.0 °F 10% 29.80 in 10.0 mi Variable 3.5 mph - N/A   Clear
3:52 PM 105.1 °F - 36.0 °F 9% 29.77 in 10.0 mi SW 6.9 mph 18.4 mph N/A   Clear
4:52 PM 106.0 °F - 24.1 °F 6% 29.75 in 10.0 mi South 12.7 mph - N/A   Clear
5:52 PM 104.0 °F - 28.9 °F 7% 29.74 in 10.0 mi SE 13.8 mph - N/A   Clear
6:52 PM 102.0 °F - 36.0 °F 10% 29.74 in 10.0 mi Calm Calm - N/A   Clear
7:52 PM 100.9 °F - 23.0 °F 6% 29.75 in 10.0 mi WSW 6.9 mph - N/A   Clear
8:52 PM 98.1 °F - 26.1 °F 8% 29.76 in 10.0 mi WSW 13.8 mph - N/A   Clear
9:52 PM 95.0 °F - 27.0 °F 9% 29.77 in 10.0 mi WSW 11.5 mph - N/A   Clear
10:52 PM 93.0 °F - 32.0 °F 12% 29.77 in 10.0 mi WSW 11.5 mph - N/A   Clear
11:52 PM 86.0 °F - 43.0 °F 22% 29.77 in 10.0 mi South 6.9 mph - N/A   Clear